Location: Cheyres
(46.8153°N, 6.7877°E)
Time: 14:12:00
(UTC+00:00)

USA 215 - Pass Details

Date: 11 May 2021
Orbit: 1100 x 1107 km, 123.0° (Epoch: 14 June)

Event Time Altitude Azimuth Distance (km) Brightness Sun altitude
Exits shadow 23:13:58 18° 111° (ESE) 2,385 4.8 -25.0°
Maximum altitude 23:18:55 72° 31° (NNE) 1,155 3.4 -25.0°
Drops below altitude 10° 23:25:26 10° 309° (NW) 2,965 6.0 -25.0°
Sets 23:27:55 0° 307° (NW) 3,925 6.7 -25.0°
